RH
3 3 3 3 3 3 3 3 3 3 3 3 3 3 3 3 3 3 3 3 3 3 3 4 3 4 5 6 7 8 9 10 11 13 16 17 19 24 29 32 33 34 32 31 32 31 32 34 33 39 41 38 35 27 22 20 22 27 33 51 77 85 71 65 60 56 54 49 50 48 45 40 35 30 25 20 17 15 14 13 12 13 14 15 14 13 12 13 15 17 19 26 32 33 40 41 37
3 3 3 3 3 3 3 3 3 3 3 3 3 3 3 3 3 2 2 2 2 2 3 3 3 3 4 5 6 8 9 10 12 15 17 18 22 27 31 34 36 36 34 33 34 35 35 35 33 34 35 32 28 21 19 18 17 20 24 32 60 86 79 70 66 62 58 53 52 50 46 42 37 32 25 21 18 16 14 13 11 11 13 14 14 13 13 14 17 19 19 27 35 35 42 43 37
3 3 3 3 3 3 3 3 3 3 2 2 2 2 2 2 2 2 2 2 2 2 2 2 2 3 4 6 6 8 10 11 13 17 19 21 24 28 31 34 36 36 36 34 35 37 38 38 36 35 34 28 24 21 20 18 16 17 21 25 48 80 86 76 71 67 62 58 55 51 48 43 38 32 26 22 19 16 15 13 11 11 11 12 13 13 13 13 17 20 21 27 34 36 44 47 39
3 3 3 3 3 3 3 3 2 2 2 2 2 2 2 2 2 2 2 2 2 1 2 2 2 2 3 6 6 8 10 11 14 16 20 22 25 27 30 35 36 35 36 34 36 37 37 35 33 32 28 26 24 22 22 21 19 17 24 40 58 82 93 83 76 73 67 63 58 54 50 45 40 33 27 22 19 17 16 14 12 11 11 11 12 13 13 13 15 19 22 28 33 34 43 51 44
3 3 3 3 3 3 2 2 2 2 2 2 2 2 2 2 2 1 2 2 1 2 2 2 2 3 3 6 6 8 10 11 13 14 18 21 23 27 30 34 33 32 30 29 31 30 30 27 26 26 24 24 21 21 24 21 19 17 25 44 57 82 99 90 83 78 73 69 61 57 53 48 41 34 27 22 20 19 17 15 13 12 11 12 12 13 14 13 14 16 20 30 37 37 41 50 48
3 3 3 3 3 3 2 2 2 2 2 2 2 2 2 2 2 2 2 2 2 2 1 2 2 3 4 5 6 8 9 11 13 14 17 20 23 26 28 28 27 25 23 24 24 22 22 20 21 21 23 21 18 21 21 27 34 21 18 26 37 76 101 94 89 84 78 73 64 61 56 49 43 35 28 23 22 20 18 16 14 13 11 12 12 13 14 14 15 17 20 30 43 45 43 48 49
3 3 3 3 3 2 2 2 2 2 2 3 3 3 2 2 2 2 2 2 2 2 2 3 2 3 4 5 7 8 9 11 12 14 16 20 23 24 24 24 23 23 23 24 23 21 19 18 20 20 21 17 18 18 17 50 63 31 18 20 31 74 102 96 92 89 83 75 67 64 57 50 44 36 29 25 23 20 18 17 15 14 12 12 13 13 15 15 15 18 22 30 44 53 53 50 49
3 3 3 3 3 3 3 2 2 3 3 3 3 3 2 2 2 2 2 2 2 2 2 3 2 4 4 5 8 9 10 11 12 14 16 19 22 23 24 24 27 28 28 28 26 25 22 23 22 22 21 19 32 29 28 70 79 44 25 23 39 70 93 92 91 92 85 77 70 66 59 51 44 37 31 26 23 20 18 18 17 15 13 13 14 15 16 16 15 18 23 30 42 55 63 60 54
3 3 3 3 3 3 3 3 3 3 3 3 3 3 2 2 2 2 2 2 2 3 3 3 3 5 6 6 8 9 11 13 14 17 19 22 25 27 30 32 35 34 32 32 29 26 26 28 28 28 20 22 56 59 42 67 82 69 48 38 49 60 69 79 91 96 85 79 74 67 59 51 44 37 32 28 24 21 20 20 19 18 16 14 15 16 17 16 16 17 21 28 40 53 66 69 62
3 3 3 3 3 3 3 3 3 3 3 3 3 3 3 3 2 2 2 2 2 3 3 3 3 6 7 8 9 9 11 13 15 20 24 28 31 32 36 38 37 36 33 31 27 24 23 26 37 45 30 25 63 78 57 65 85 89 79 72 74 71 67 77 96 97 84 82 76 67 60 51 44 38 34 30 26 24 24 22 21 20 18 16 15 17 18 18 16 16 18 25 38 51 65 74 68
4 3 3 3 3 3 3 3 3 3 3 3 3 2 3 3 3 3 2 3 2 3 4 4 5 6 9 11 12 13 15 16 18 21 26 30 33 33 35 35 33 31 29 26 23 23 21 20 33 49 49 41 54 76 77 80 94 97 95 96 94 94 89 88 99 93 84 85 76 66 58 50 45 40 36 32 29 28 26 24 23 22 21 18 16 16 19 19 17 16 17 22 34 50 66 75 71
4 4 4 4 4 4 3 4 4 4 3 3 3 2 3 2 3 2 2 4 3 4 4 4 6 8 13 16 16 19 22 23 23 24 27 30 32 32 32 30 28 26 23 21 20 21 20 19 29 42 49 42 36 58 80 84 96 100 99 100 97 100 99 98 100 92 87 84 73 64 56 51 46 42 38 34 33 31 29 26 26 26 25 22 18 16 18 20 18 16 15 17 27 43 63 73 72
5 4 4 4 4 5 4 5 5 4 3 3 3 3 3 2 3 3 3 4 4 5 4 5 7 10 18 21 24 28 30 31 29 30 32 32 33 31 30 28 26 24 21 19 19 19 21 22 30 36 31 24 16 31 57 67 85 98 97 100 99 99 100 100 100 94 91 82 70 62 56 53 48 44 40 37 36 34 31 28 30 31 29 26 22 19 18 20 19 17 15 13 16 28 50 68 73
6 5 5 5 5 5 5 6 5 5 4 3 4 3 3 3 3 3 4 4 5 6 5 8 10 15 22 24 32 36 36 36 34 36 36 35 36 33 32 29 26 24 21 18 17 18 21 20 21 23 18 14 10 17 37 51 75 95 95 98 99 98 99 100 99 95 88 78 68 62 58 55 51 46 42 40 38 35 32 29 31 32 32 29 26 23 21 22 21 19 17 13 11 14 30 54 68
6 6 6 6 7 7 7 7 7 5 4 4 4 3 4 3 3 4 4 5 6 7 8 13 14 21 28 28 36 39 37 38 37 38 36 36 35 33 31 28 26 23 20 18 16 15 16 15 15 16 15 14 14 24 46 59 73 86 87 96 101 100 101 99 97 94 87 78 69 64 60 57 52 48 45 43 40 37 33 29 29 29 29 28 27 26 24 24 23 21 19 16 13 10 14 32 53
6 6 6 7 8 8 9 9 8 6 5 5 5 4 4 4 4 4 4 5 7 8 11 16 16 22 29 28 34 37 37 38 37 36 33 33 31 30 29 27 26 22 21 21 18 15 13 13 14 15 15 16 16 25 50 69 76 76 72 76 86 93 97 97 96 93 90 82 72 66 62 59 57 55 53 48 42 37 33 31 31 30 28 26 26 26 25 25 25 23 20 18 15 13 10 15 33
7 6 7 8 9 9 10 10 9 7 6 5 5 5 5 5 4 4 5 5 7 10 12 16 17 22 30 30 32 35 36 34 33 33 31 31 30 28 27 26 25 22 22 22 18 15 13 13 14 16 16 17 22 25 37 53 62 64 62 60 66 76 81 86 90 90 89 83 73 66 63 62 62 62 59 51 42 35 33 34 34 32 29 27 26 27 26 27 27 26 23 20 16 14 12 11 18
7 7 8 10 10 10 10 11 9 7 6 6 6 6 5 5 5 5 5 5 7 11 13 16 19 23 29 33 33 32 32 31 30 30 30 31 29 28 28 26 24 22 22 21 18 16 13 12 15 18 17 18 26 29 30 34 41 49 53 54 59 65 69 76 81 82 82 77 70 65 64 63 63 64 59 49 40 34 32 34 35 34 31 28 27 28 29 29 30 29 26 21 17 14 14 12 13
9 9 10 12 11 11 11 11 9 7 6 6 6 6 6 6 6 6 5 6 7 10 13 16 22 26 29 32 32 30 29 30 31 31 32 31 30 29 27 25 23 21 21 19 17 16 15 14 15 17 18 20 23 26 28 28 36 45 49 56 59 59 65 72 75 76 75 72 69 67 66 67 67 65 56 46 38 33 33 36 37 35 34 33 32 31 32 34 35 32 29 23 17 14 14 14 14
10 11 13 14 13 12 12 12 10 8 8 7 7 7 6 7 7 6 6 7 6 9 12 15 21 24 25 27 26 26 28 31 34 33 32 30 29 27 23 21 20 19 19 17 15 16 17 15 15 17 18 19 20 23 23 22 33 45 56 68 66 61 66 73 73 72 72 69 69 69 70 72 69 61 52 43 38 35 37 39 39 36 36 38 40 41 40 40 40 37 32 25 19 14 14 15 16
10 12 15 16 14 14 14 14 11 9 9 8 8 8 7 8 7 7 7 7 7 8 10 13 16 18 19 20 23 27 31 34 32 29 28 27 24 20 17 16 16 17 15 14 15 17 18 17 16 16 17 18 19 20 18 28 43 50 63 73 69 67 70 71 69 67 68 67 67 69 69 68 62 54 48 43 39 37 35 34 36 38 41 46 48 50 51 48 45 42 37 30 24 19 17 17 17
11 14 16 17 15 15 15 14 12 11 11 10 10 9 9 8 8 8 7 7 8 8 10 12 13 16 18 22 28 32 32 28 23 22 23 21 18 14 14 14 15 15 13 14 17 18 19 19 18 18 18 17 19 20 21 38 54 55 62 65 61 62 62 61 62 61 63 66 68 69 67 61 54 48 45 41 38 35 32 34 36 40 49 56 55 53 54 54 51 47 41 34 29 27 26 24 22
13 16 18 17 16 17 16 15 14 14 13 12 11 11 10 10 9 9 9 10 10 11 12 13 16 20 25 31 34 32 27 22 19 20 20 17 14 13 14 16 17 17 17 17 18 21 24 22 21 19 18 18 23 27 25 38 59 65 59 52 50 53 56 60 63 63 64 64 64 64 61 54 49 45 42 38 34 31 32 39 41 44 54 61 58 54 52 53 54 52 48 43 39 39 38 35 31
15 18 19 18 17 17 16 15 16 16 15 13 11 12 12 11 10 10 10 11 13 16 17 18 21 25 33 38 35 30 24 20 19 19 18 15 14 15 18 21 22 21 21 21 21 23 22 23 22 20 27 36 37 38 36 43 61 66 59 57 59 62 67 68 66 67 68 63 56 56 55 51 47 42 38 34 28 24 27 40 50 54 59 60 56 53 50 50 52 53 54 53 51 50 48 43 38
16 19 19 18 18 18 15 15 16 16 15 13 12 13 13 12 11 11 12 12 15 19 22 25 26 30 38 39 34 29 23 19 19 19 17 16 17 20 22 24 25 26 26 25 24 23 22 25 24 29 55 70 61 54 55 61 64 60 61 66 67 67 67 63 60 62 64 61 57 56 54 47 42 38 34 27 21 17 17 28 47 59 60 56 52 49 47 47 52 56 58 60 58 56 51 47 44
17 19 19 18 19 19 15 15 16 16 16 14 14 15 14 13 13 13 13 13 15 19 23 28 31 35 38 36 33 27 21 19 19 19 18 17 20 22 24 25 27 30 34 33 28 26 25 23 28 51 80 83 69 62 63 69 66 56 52 57 61 64 61 57 57 58 57 55 54 55 52 43 35 31 27 21 16 14 15 24 41 56 57 54 52 49 49 52 56 59 58 57 54 50 47 47 49
17 18 18 18 19 19 16 15 16 16 16 16 16 16 15 14 14 14 15 15 15 17 20 23 28 33 35 35 31 23 19 19 20 20 19 20 23 22 23 24 28 34 38 39 36 31 25 30 56 82 87 77 70 71 73 75 71 55 43 43 50 56 56 52 51 50 47 47 47 45 44 41 33 26 22 21 22 21 27 36 47 58 58 57 58 55 58 60 58 54 50 47 45 42 41 44 50
16 18 18 18 19 19 18 17 17 17 17 17 18 17 16 15 15 15 15 16 16 16 17 19 22 26 31 32 25 19 19 20 21 20 20 22 20 19 23 27 34 39 40 37 34 38 41 51 76 86 82 81 78 78 79 78 76 60 43 39 40 44 44 42 42 38 42 54 52 40 42 47 43 41 36 32 35 40 46 48 47 55 59 58 61 63 67 66 59 54 51 49 48 48 47 49 53
15 18 18 19 19 19 19 19 18 18 18 18 19 18 17 17 17 17 16 17 17 17 18 19 21 24 28 27 21 20 20 21 20 19 21 20 21 26 29 35 41 40 41 37 36 58 71 61 63 73 81 86 79 74 72 70 70 56 42 40 39 38 36 35 36 35 46 61 52 44 55 56 49 51 49 38 38 45 55 58 53 52 56 57 60 67 73 71 64 59 56 55 54 52 53 57 62
15 17 19 19 20 19 19 20 19 19 20 20 20 19 19 19 18 18 17 18 18 19 19 19 21 23 25 23 21 21 20 21 19 20 20 19 35 51 42 39 45 42 43 41 36 57 72 55 52 69 79 78 74 70 66 64 62 50 43 44 40 37 35 35 35 35 47 53 45 48 56 49 39 42 41 32 29 36 48 60 60 53 53 59 62 64 69 71 68 64 61 60 58 55 53 53 55
15 17 19 20 20 20 20 20 20 20 20 20 20 19 19 20 19 18 18 19 18 19 19 20 21 22 23 22 21 21 20 21 19 19 21 20 36 51 44 42 48 46 46 46 37 42 54 50 45 56 68 73 72 68 65 63 59 53 51 50 44 37 33 34 34 36 40 38 36 41 38 29 24 25 25 20 21 34 50 60 60 52 50 59 64 63 64 69 71 70 68 67 65 62 57 53 50
14 17 19 20 20 20 20 21 20 21 21 21 21 19 19 19 18 18 18 19 18 19 19 20 21 21 21 20 20 21 20 20 19 18 22 24 26 31 37 43 47 48 47 48 47 44 48 53 49 53 66 68 64 67 70 65 61 60 59 56 49 36 27 25 24 28 27 22 23 25 21 16 12 12 14 12 14 29 50 62 63 56 48 51 60 62 62 68 74 76 75 72 67 63 61 59 56
14 16 18 19 20 20 20 21 20 21 20 20 20 19 19 19 18 18 18 19 19 19 20 20 21 20 20 21 20 21 20 20 19 19 20 24 26 28 32 38 43 47 46 46 48 44 47 63 69 66 68 64 66 79 77 64 59 60 58 52 42 27 19 16 14 16 15 13 14 13 13 12 9 9 9 8 10 18 36 54 63 62 53 45 51 61 64 67 72 75 74 69 60 54 57 60 59
15 16 18 19 19 20 20 20 20 20 20 20 20 19 19 19 19 18 19 19 19 19 20 20 20 20 20 20 20 20 21 21 20 21 22 24 30 32 30 33 37 42 47 48 46 42 44 68 89 83 77 72 76 86 75 59 56 57 53 42 29 20 15 14 14 13 12 12 12 10 11 10 9 9 8 8 9 10 21 38 52 58 55 46 44 54 64 66 64 66 67 59 45 38 44 50 52
15 16 17 18 19 19 19 19 19 19 19 19 19 19 19 19 19 19 19 18 18 18 19 20 20 20 19 19 21 23 26 26 24 26 27 28 32 30 26 27 28 35 48 52 49 46 40 62 95 99 92 87 83 82 70 59 57 53 45 32 23 18 16 16 16 15 15 14 12 11 10 10 10 10 9 9 8 7 13 25 38 46 50 48 44 46 58 63 60 59 60 50 36 31 34 39 44
16 17 17 18 18 18 18 18 19 19 19 19 18 18 18 18 19 19 18 17 16 15 15 18 19 19 18 20 25 30 35 33 30 34 36 34 32 28 23 23 24 32 45 50 52 53 44 55 86 99 98 94 84 75 66 61 58 51 42 34 28 22 19 18 17 17 16 15 14 13 11 11 11 10 9 9 8 7 9 15 25 34 39 42 43 47 53 58 56 54 53 45 35 32 34 38 43
17 17 17 17 17 17 18 17 18 18 18 18 17 18 17 18 18 17 16 13 12 14 15 17 19 19 20 27 36 43 44 40 38 42 43 37 32 27 24 23 27 37 47 52 55 59 55 57 74 88 90 85 73 64 60 58 56 54 49 43 36 27 22 20 19 18 17 17 16 14 13 11 11 11 10 10 9 8 7 9 15 23 30 34 39 45 50 54 51 47 47 41 34 32 35 38 38
15 16 16 16 16 16 16 16 16 16 16 16 16 17 16 16 15 13 12 10 11 14 18 22 23 26 33 41 49 51 49 47 45 44 42 38 31 29 30 29 33 46 56 57 58 61 64 63 68 75 76 69 61 55 54 53 54 55 53 48 39 30 28 27 24 21 18 17 16 16 15 14 12 11 11 11 10 10 9 8 9 14 22 28 31 31 35 40 41 41 42 36 30 31 36 35 31
12 13 14 14 15 15 14 14 14 14 14 14 15 15 15 14 13 13 12 13 17 20 26 36 41 44 49 50 54 59 58 52 45 42 42 41 35 32 35 37 40 52 62 64 64 65 67 67 68 68 65 59 54 50 49 49 50 53 52 46 39 37 39 38 34 27 21 18 17 17 16 16 16 15 14 13 12 11 10 9 9 10 12 16 17 15 16 21 28 36 39 34 30 30 33 32 30
9 10 11 11 12 12 12 12 11 12 12 13 15 16 17 18 19 21 22 25 29 32 37 47 54 54 55 57 61 66 61 49 41 41 43 43 40 37 38 39 40 47 59 65 64 62 62 65 67 66 62 58 55 52 49 46 47 50 50 45 43 48 50 46 40 31 22 19 19 20 19 19 20 20 19 17 15 13 12 11 10 10 10 9 9 9 10 14 18 27 34 34 31 26 25 23 22
8 8 9 9 10 10 10 10 11 11 12 15 20 24 27 29 33 35 36 38 41 43 44 49 55 58 62 65 65 64 53 40 39 43 44 47 50 47 43 40 37 35 40 45 47 46 48 53 58 61 61 61 59 53 49 48 49 51 50 48 51 54 53 50 45 34 24 22 22 21 21 20 20 21 23 21 19 17 14 14 12 11 10 9 9 8 9 12 13 17 22 27 25 18 16 14 14
8 8 9 9 9 10 10 11 11 13 19 23 25 34 40 38 42 47 47 48 49 50 49 51 59 65 68 63 57 57 50 38 41 47 49 55 62 60 50 40 35 31 29 29 30 31 33 40 51 60 63 63 60 57 54 53 54 54 53 54 56 57 57 58 51 36 28 26 26 28 30 28 24 20 21 22 22 20 17 16 14 13 12 11 11 10 9 10 10 11 12 14 14 12 11 10 11
9 9 9 10 10 12 13 13 14 19 32 37 32 40 50 46 45 50 53 55 55 56 56 57 63 65 63 56 51 53 50 42 45 51 54 60 67 67 58 44 34 29 28 27 27 27 28 34 46 57 62 64 64 61 59 56 56 57 59 60 61 61 64 67 57 37 29 31 36 50 59 55 44 29 20 20 21 21 20 18 16 15 14 13 12 12 11 10 9 10 9 10 9 10 10 10 11
10 11 11 12 12 14 16 17 20 25 38 49 44 43 52 55 52 51 53 56 56 57 59 61 63 62 59 59 58 56 52 49 51 53 55 60 65 65 61 53 42 33 30 29 30 30 29 31 41 53 62 68 68 64 60 58 57 58 63 67 67 71 74 71 56 39 37 38 40 56 64 63 60 41 22 17 17 18 18 18 18 16 15 14 13 13 13 12 11 10 10 10 10 9 10 10 11
11 11 12 14 14 15 17 20 25 29 37 53 56 49 50 55 56 54 53 55 58 60 62 63 64 64 62 63 65 63 60 58 58 57 56 56 59 61 60 55 49 44 40 38 36 35 34 34 39 50 61 69 67 58 49 47 47 47 54 64 67 71 74 69 57 47 47 44 46 56 51 54 66 51 30 24 25 25 22 17 16 17 16 15 14 14 13 13 13 12 11 11 11 11 12 12 12
12 11 11 13 15 17 17 21 28 32 37 49 55 53 52 51 53 55 55 55 57 61 61 60 60 62 63 66 71 71 70 69 69 67 60 55 56 58 58 53 50 49 48 48 47 42 39 37 37 42 52 63 62 49 36 33 33 29 35 55 65 63 60 60 60 63 65 64 65 59 40 46 68 61 48 48 48 49 44 30 18 15 16 15 15 15 14 14 13 13 13 13 13 13 13 14 13
13 12 12 12 14 17 19 24 29 34 42 46 49 52 52 49 49 54 59 60 58 60 60 56 56 62 67 71 76 79 78 78 78 76 68 63 63 62 57 50 46 46 45 47 50 48 45 41 38 38 44 51 50 40 33 30 29 26 29 45 57 54 47 41 41 50 59 60 56 42 27 40 64 67 62 62 59 58 58 47 27 14 14 14 14 15 14 14 13 13 13 13 14 14 13 14 13
16 16 15 15 17 18 22 26 28 35 46 49 49 52 52 51 52 54 60 62 61 63 63 61 63 70 75 78 81 81 76 70 70 72 71 69 70 68 58 49 45 45 44 45 47 49 48 43 39 38 40 42 40 36 35 34 33 31 31 35 41 44 44 43 44 47 49 46 42 37 34 46 66 73 69 63 59 57 57 53 34 17 13 13 13 14 13 14 13 13 13 13 12 13 12 12 11
17 19 21 22 23 21 22 26 28 31 43 52 56 58 57 57 56 57 61 61 62 64 65 66 70 74 79 82 84 80 70 65 64 66 68 69 73 74 64 52 47 49 52 51 49 49 47 45 43 42 42 41 40 40 39 38 36 33 33 36 38 41 44 48 51 53 56 60 62 64 65 66 73 78 75 70 64 58 54 47 31 18 13 13 12 12 12 12 13 12 12 12 12 12 11 10 9
25 26 28 29 29 26 23 22 22 23 32 45 58 64 64 62 60 60 62 61 62 65 68 72 76 79 84 87 87 81 73 68 64 61 63 65 69 75 73 63 55 53 56 56 53 51 47 45 42 42 47 49 47 46 42 38 36 33 32 31 32 38 42 42 44 46 53 61 65 72 81 82 83 85 83 76 67 59 50 36 22 15 14 14 13 11 10 10 11 12 11 11 11 10 10 9 7
42 39 36 34 32 30 29 25 22 24 28 37 51 63 66 64 64 64 65 66 66 69 74 80 82 84 88 90 90 87 80 67 56 53 57 59 63 73 81 79 69 59 56 55 52 46 41 44 49 57 68 67 52 42 38 33 32 31 29 31 39 50 55 55 57 59 63 65 65 66 70 76 87 92 84 72 63 56 45 30 18 13 13 14 13 12 10 9 9 10 10 10 10 9 9 8 6
47 41 39 41 39 37 38 34 29 30 31 33 42 54 61 66 71 70 70 73 75 76 78 80 81 82 84 88 89 90 86 71 53 47 51 55 55 57 61 61 57 53 46 40 39 42 53 69 81 88 95 88 66 50 46 43 42 41 40 46 56 62 65 67 71 73 75 76 76 73 73 79 84 80 70 65 61 55 44 28 18 14 12 12 13 12 11 9 8 7 7 8 8 7 7 7 6
52 49 48 52 51 47 46 42 36 32 32 31 34 43 56 69 79 79 78 81 82 84 85 83 83 83 82 84 84 84 82 69 49 37 38 45 43 39 48 59 61 54 35 29 46 69 86 95 95 94 97 91 75 63 58 54 52 51 54 64 67 62 58 59 64 67 66 68 71 73 77 79 72 62 61 67 68 65 55 36 22 19 17 15 14 13 13 10 8 6 5 6 5 5 5 5 5
61 62 62 62 59 52 48 46 40 34 31 31 31 34 44 55 65 70 72 76 77 79 81 79 76 73 70 70 69 65 58 46 35 26 27 43 48 46 66 88 89 72 48 43 65 88 98 98 90 84 85 82 75 71 68 66 65 61 63 68 64 51 43 43 50 54 55 60 67 71 75 74 66 62 68 73 75 77 72 57 43 37 33 26 19 15 15 14 12 9 6 5 4 5 5 4 4
60 65 69 69 65 58 52 47 42 37 34 32 30 30 32 35 38 41 44 47 48 49 49 48 47 45 44 46 46 42 36 31 31 30 36 60 72 63 72 91 91 79 62 57 66 76 88 99 91 77 71 69 68 67 63 64 67 64 59 56 47 38 36 40 45 47 49 54 59 67 77 81 84 86 82 78 77 78 79 78 70 59 49 38 27 20 18 17 16 15 12 11 9 8 8 8 8
61 63 68 69 66 63 59 54 48 45 40 35 34 33 32 31 31 31 31 31 30 30 30 29 29 29 30 33 34 32 32 29 27 30 41 69 84 74 73 85 88 81 72 74 82 85 92 102 92 73 62 56 50 46 45 46 48 46 42 39 35 31 31 32 33 33 34 39 45 52 57 66 84 94 82 73 76 80 87 92 85 72 60 46 32 25 24 23 23 22 20 19 18 17 16 17 17
70 69 70 67 63 61 58 54 50 48 46 42 39 37 37 39 39 39 39 37 34 33 32 29 29 29 30 33 34 31 31 31 27 28 40 61 78 80 79 84 89 88 85 92 101 100 99 101 92 76 64 52 43 41 42 41 38 36 35 32 30 28 27 26 27 30 27 29 39 46 47 56 74 78 69 71 83 91 95 91 81 74 70 60 46 34 30 29 28 29 29 28 26 26 25 25 25
73 76 77 72 69 70 67 62 54 48 50 50 47 46 49 51 51 50 47 45 42 38 35 32 30 30 31 36 40 39 42 45 43 47 63 76 81 83 84 84 88 94 94 95 99 100 100 100 94 82 66 51 44 44 43 39 35 33 32 32 30 29 27 23 25 34 35 32 37 44 47 53 56 52 54 69 83 84 80 72 63 63 72 76 65 47 38 37 36 36 38 41 40 39 37 36 35
Wind_Speed
32 33 33 34 34 34 33 32 32 31 30 29 28 28 26 25 25 28 31 33 32 32 32 31 32 32 31 30 30 30 31 30 30 29 28 28 27 26 26 26 26 26 26 26 25 25 24 24 24 25 25 26 27 28 29 28 28 27 25 24 24 24 24 24 23 22 20 19 17 16 16 16 17 17 17 17 17 17 17 16 15 14 13 12 12 11 11 10 9 8 7 6 6 5 4 4 5
32 32 33 33 34 34 34 33 32 32 31 30 29 28 26 26 28 30 32 32 32 33 33 32 32 32 32 31 31 31 31 31 30 29 29 29 28 27 27 27 27 27 27 27 26 26 26 25 25 26 26 27 28 29 29 28 27 27 26 25 25 25 25 24 24 23 22 20 18 17 17 17 18 17 17 17 17 17 17 17 16 15 14 13 12 12 11 11 10 9 8 7 6 6 5 5 5
32 32 33 33 33 33 34 33 33 32 32 31 29 27 27 28 30 32 32 32 33 34 33 33 33 33 33 32 33 32 32 31 31 30 30 30 29 29 29 28 28 27 27 27 26 27 27 26 26 27 27 27 29 29 29 28 27 27 26 26 25 26 26 25 25 24 22 21 19 19 19 19 18 18 18 17 17 17 16 17 17 16 15 14 13 13 12 11 11 10 9 8 7 6 6 6 6
31 32 32 33 33 33 33 33 32 31 30 29 28 27 27 29 30 32 33 32 33 33 33 33 33 33 33 33 34 33 33 33 32 32 31 31 31 31 30 29 29 28 28 27 27 27 28 28 28 28 28 28 29 28 28 29 29 28 26 25 25 27 28 27 26 24 23 22 20 19 19 20 19 18 18 18 17 17 16 16 17 17 15 15 14 14 13 12 12 11 10 9 8 7 7 7 8
31 32 32 32 32 32 32 32 31 29 28 27 27 26 27 28 31 33 33 32 32 33 33 32 33 33 34 34 34 34 34 34 33 33 33 32 32 32 32 31 30 30 29 28 28 28 29 29 30 29 29 29 29 28 29 30 30 29 27 25 25 28 28 27 27 25 24 23 21 19 20 20 20 19 17 17 17 17 17 16 16 17 16 15 15 15 14 13 12 12 11 10 8 8 8 8 8
30 31 31 31 31 31 31 30 29 28 27 27 25 25 27 29 31 33 32 31 31 32 32 33 33 33 34 35 35 35 35 34 33 33 33 32 32 32 32 31 31 31 30 29 28 29 30 31 31 31 31 30 29 28 29 30 30 30 29 26 25 28 28 26 27 26 24 23 21 20 20 20 20 19 17 17 17 17 17 17 17 17 16 16 16 15 15 14 12 12 11 11 10 10 9 8 9
30 30 30 30 30 30 30 29 28 28 27 25 22 24 28 30 31 32 32 31 31 31 32 32 33 33 34 35 35 36 35 35 34 33 33 33 32 31 31 31 30 30 30 30 30 30 31 32 33 33 33 31 30 29 29 29 28 27 29 28 25 27 27 27 28 27 24 22 21 20 20 21 21 20 17 17 17 17 16 17 17 17 17 16 16 16 15 14 13 11 11 11 12 11 10 9 10
29 29 29 29 29 29 28 28 28 27 26 24 23 24 29 31 31 31 32 32 31 31 31 32 33 33 34 35 34 35 35 35 35 34 34 33 32 31 31 31 30 30 30 30 30 30 32 33 34 34 33 31 30 29 26 25 23 24 27 28 27 27 28 29 30 27 24 23 22 22 21 21 21 20 18 17 17 17 16 16 16 16 16 16 16 16 15 14 14 12 11 12 13 13 12 11 11
28 28 28 28 28 28 27 27 26 25 25 25 24 26 29 30 30 30 31 32 31 31 30 31 33 33 34 34 34 35 35 35 35 34 34 33 32 32 31 31 30 30 30 30 30 31 31 32 33 33 32 28 26 25 24 23 22 24 26 28 28 28 29 31 31 26 24 25 24 22 21 22 22 21 19 18 18 17 17 16 16 16 16 16 16 16 15 14 14 13 12 12 13 14 13 12 12
27 27 27 27 27 27 26 26 25 24 24 25 26 27 27 28 29 29 31 32 32 31 30 31 32 32 33 34 35 35 35 35 35 34 34 32 32 32 31 31 31 30 31 31 32 32 31 30 29 28 27 25 22 22 23 23 23 25 27 28 29 30 31 31 30 27 26 26 24 22 22 22 22 21 19 19 19 18 17 16 16 16 17 17 16 15 15 14 14 14 13 12 13 14 14 13 13
26 26 26 26 26 26 25 25 24 24 24 26 27 26 25 26 28 29 30 31 31 31 31 30 31 33 33 34 34 35 35 35 35 34 33 33 32 32 32 32 31 31 32 33 33 33 30 28 26 24 24 21 22 22 22 24 24 25 28 30 30 32 33 31 31 29 28 25 22 22 22 22 22 21 21 21 20 18 17 16 16 16 16 17 17 16 15 15 15 15 14 13 13 14 14 14 14
25 25 25 25 25 24 24 23 22 23 24 26 27 26 24 25 27 29 30 31 31 32 32 31 31 32 32 33 33 34 34 34 34 34 34 34 33 33 33 33 33 33 33 34 33 33 31 29 26 24 24 23 24 23 22 25 27 29 31 32 33 34 35 33 32 30 26 23 21 22 22 22 22 22 22 21 20 18 17 16 16 16 16 17 17 17 16 15 15 15 15 14 14 14 15 15 15
25 24 24 23 23 22 22 21 21 23 25 25 25 25 25 25 26 29 30 31 31 32 32 31 31 31 31 32 32 33 33 33 34 34 34 34 34 34 34 35 34 34 35 34 33 32 30 29 28 28 28 26 25 23 23 24 24 30 35 34 35 36 37 35 32 28 23 20 21 21 21 22 23 24 24 22 20 18 18 17 16 16 16 17 17 18 17 16 15 15 16 15 15 15 16 16 17
24 23 23 22 21 21 19 18 20 22 24 23 24 25 25 24 26 28 30 32 31 32 32 31 31 31 31 31 31 32 32 32 33 33 34 34 35 35 35 36 36 36 35 34 34 31 29 29 29 28 27 24 23 21 22 20 16 22 31 35 39 37 34 30 26 23 20 19 20 20 21 22 24 25 24 23 21 19 19 18 16 16 16 17 17 17 18 17 15 15 16 17 17 16 17 17 18
24 23 22 21 19 19 17 17 19 21 23 22 22 24 25 24 25 28 30 32 32 32 32 31 31 30 30 31 30 31 32 32 33 33 34 35 35 36 36 37 36 36 35 35 33 30 27 26 26 25 22 19 18 17 17 15 10 11 17 25 32 29 24 22 19 18 18 19 20 20 21 23 24 25 25 24 22 20 19 17 16 16 17 18 18 17 18 18 17 16 16 18 18 18 18 18 19
23 22 22 20 18 17 15 16 19 21 22 22 22 24 24 24 24 28 30 32 33 32 32 32 32 31 30 31 31 31 31 32 32 33 34 35 36 36 36 36 36 36 35 33 30 27 24 23 23 21 19 17 16 16 15 13 10 10 10 13 18 18 16 18 17 18 19 19 20 21 22 23 24 24 25 24 22 20 18 17 16 16 17 17 18 18 18 18 18 17 17 18 19 20 20 20 20
22 21 21 18 16 15 15 17 20 21 22 22 22 23 24 24 24 27 30 32 33 33 33 33 33 32 31 32 32 32 32 32 33 34 35 35 36 36 36 35 35 35 33 31 27 24 22 20 19 18 17 16 14 14 14 13 13 14 14 13 13 13 15 18 19 20 20 20 20 21 23 23 24 24 24 24 22 20 18 16 15 15 16 16 17 18 19 20 19 19 18 18 19 20 21 21 21
21 20 19 16 15 15 16 18 21 22 23 23 22 23 24 24 25 27 29 32 33 34 34 33 33 33 33 33 33 33 33 34 34 35 35 35 35 35 35 35 34 33 31 29 25 22 19 17 17 16 15 13 12 12 13 13 13 14 15 15 14 14 15 17 20 21 21 22 22 23 24 25 26 25 25 23 21 19 18 16 15 15 15 16 17 19 20 20 20 20 19 18 18 19 20 21 22
21 20 17 15 15 16 16 18 21 22 23 23 22 23 23 25 26 27 29 31 32 34 34 34 34 34 34 34 34 34 34 34 34 35 35 34 35 35 35 33 31 29 27 25 23 20 17 15 15 14 13 11 11 12 14 15 14 14 14 15 14 14 16 17 19 20 22 22 24 25 26 27 27 25 24 22 20 18 17 16 15 15 15 16 17 19 20 20 20 20 19 19 18 18 19 20 21
22 20 16 14 15 17 17 19 21 22 22 22 22 22 23 25 26 26 28 29 30 33 34 35 36 35 35 35 35 35 34 33 33 33 33 34 34 33 31 29 26 24 23 22 20 18 15 14 13 12 11 11 11 13 15 17 17 15 15 16 15 15 16 18 19 20 22 23 25 27 28 27 26 25 23 21 19 18 17 16 16 15 16 16 17 18 18 19 19 19 19 19 18 18 18 19 20
22 19 16 15 17 18 17 19 21 22 21 21 22 22 23 23 25 25 26 27 29 31 33 35 36 37 36 35 34 32 31 29 29 31 32 32 31 28 26 23 21 20 19 18 17 16 15 13 12 11 10 11 12 14 15 17 18 16 16 16 15 16 17 18 19 21 23 24 26 27 28 27 26 24 22 20 18 17 17 16 16 15 16 16 16 16 17 18 18 18 19 19 18 17 16 17 18
21 19 17 17 19 19 19 20 21 21 20 20 21 21 21 21 21 22 24 26 27 29 31 33 34 35 34 31 29 27 26 26 28 30 30 28 25 23 20 18 17 17 16 14 13 14 13 12 11 10 10 12 15 16 15 17 18 16 16 16 16 18 18 19 20 22 23 25 26 26 26 26 25 23 21 19 17 17 17 16 16 16 16 16 16 16 16 16 17 17 18 18 18 16 16 16 17
21 19 18 18 19 19 20 22 21 20 20 20 19 19 19 19 19 20 22 25 26 28 29 30 31 30 29 26 24 24 24 25 28 27 26 23 20 17 15 15 15 15 13 11 11 12 11 10 10 11 12 15 17 18 17 16 16 15 15 17 19 20 20 21 21 21 23 24 25 25 25 24 23 22 19 18 17 17 17 16 16 16 16 16 16 16 16 15 16 17 18 18 18 17 16 16 17
22 19 19 19 20 21 23 23 20 19 19 19 18 18 19 18 18 19 21 23 24 25 27 27 28 27 25 24 24 25 26 26 27 24 21 18 15 13 13 13 14 13 11 11 11 10 10 10 11 13 16 18 18 17 16 15 14 14 15 17 18 19 20 19 19 20 21 23 24 25 24 22 21 20 18 17 16 16 16 16 15 15 16 16 16 16 16 16 17 17 18 18 18 17 17 17 17
23 20 21 21 22 23 25 23 19 18 19 19 18 18 18 17 18 19 21 21 22 23 25 25 25 25 25 25 25 26 26 25 23 20 17 14 12 12 11 12 12 12 11 11 10 10 11 11 14 17 16 14 13 12 13 13 14 14 14 16 18 18 17 17 18 19 20 21 22 22 21 20 20 18 17 17 16 17 17 16 16 16 16 16 16 17 17 17 17 17 17 17 17 17 17 17 17
24 23 23 23 23 25 25 22 19 18 18 19 18 18 19 18 18 19 20 20 22 23 23 24 24 24 25 25 25 26 25 22 19 17 14 12 11 11 11 11 12 12 12 11 10 10 11 14 17 16 13 11 11 11 13 14 14 13 13 15 15 15 15 16 17 18 19 21 21 19 19 19 18 17 17 17 17 16 16 17 17 17 17 16 16 17 17 17 16 16 15 16 16 16 16 16 17
25 25 24 23 24 25 23 21 20 19 19 19 18 19 20 19 18 18 18 20 21 22 22 22 23 24 23 22 23 24 21 18 17 15 13 12 11 11 12 12 11 11 11 11 11 11 13 14 13 10 11 13 13 13 13 12 11 11 12 13 12 12 13 15 16 17 19 20 18 17 18 18 17 16 16 16 16 16 15 16 16 17 16 16 16 16 16 16 16 15 15 15 15 15 15 14 15
26 25 24 24 24 24 22 21 20 20 20 19 18 20 20 19 17 17 18 19 20 20 20 20 20 20 20 20 23 22 19 17 16 15 14 12 11 13 14 12 11 11 10 10 10 13 14 11 10 10 12 13 12 12 11 9 9 10 11 11 11 12 13 15 16 17 18 17 15 16 18 16 15 15 15 15 15 15 15 15 16 17 16 15 15 16 16 16 16 16 15 15 14 14 13 13 13
26 25 24 24 24 24 23 22 21 21 21 20 19 20 19 17 17 17 17 18 19 19 18 18 18 18 18 21 23 21 18 18 17 16 15 12 13 15 13 10 10 10 9 7 9 11 11 10 12 15 15 13 13 13 12 11 11 10 9 9 11 12 15 17 16 16 17 15 13 16 17 14 13 13 14 14 13 14 14 15 16 17 16 15 15 16 16 17 17 16 15 15 14 14 13 12 12
26 25 24 24 24 24 23 23 23 22 22 21 21 21 19 18 18 18 19 19 19 18 17 16 17 17 19 22 23 21 20 19 18 17 15 13 14 11 8 9 8 8 8 6 7 9 12 13 14 14 14 13 14 13 13 13 12 9 8 9 11 13 16 16 14 15 15 13 13 16 16 13 12 12 12 13 13 13 14 15 16 16 16 16 15 16 17 17 17 17 16 15 15 15 14 13 13
26 25 25 25 24 24 24 24 24 24 25 24 24 24 21 19 20 20 20 20 19 18 17 16 17 19 22 24 23 22 21 20 19 18 15 15 14 9 7 9 7 6 5 4 6 9 12 14 14 13 12 12 13 14 13 12 11 9 9 10 12 13 15 14 12 14 15 12 12 15 14 12 12 12 12 12 13 13 13 14 16 16 16 16 15 15 17 18 18 18 17 16 16 16 16 16 16
26 26 26 25 26 25 25 26 26 27 28 27 26 24 21 21 21 21 21 20 20 19 18 19 20 21 23 24 23 23 22 21 20 18 17 17 17 13 11 10 7 5 3 3 4 6 8 12 14 14 13 13 13 13 13 12 10 9 10 11 12 13 14 12 11 13 14 12 13 14 13 12 12 12 12 12 13 13 13 13 15 16 15 16 15 15 17 18 18 18 18 17 17 17 17 17 17
26 26 27 26 27 26 26 27 27 28 29 28 27 24 22 21 21 22 22 21 22 21 20 21 22 23 24 24 23 23 22 21 20 19 18 17 17 15 14 12 10 7 4 2 2 3 5 7 13 15 15 14 13 12 12 11 9 10 10 11 11 12 13 12 11 11 12 11 12 13 13 12 12 12 12 12 13 13 13 13 14 15 15 15 16 16 17 18 18 18 19 18 17 17 17 18 18
26 27 27 27 26 26 26 28 28 29 29 27 26 24 23 23 22 23 23 23 24 24 23 24 24 24 25 24 24 23 22 21 19 20 19 18 17 15 15 15 13 10 5 2 2 2 2 2 8 14 15 15 15 15 14 10 9 10 10 9 10 10 11 11 11 11 10 10 11 11 11 11 12 12 13 13 12 13 14 14 14 15 16 16 16 16 17 19 19 18 18 18 17 17 17 18 18
27 28 28 28 26 26 27 28 28 28 28 27 25 24 24 23 23 24 25 25 26 26 25 26 25 25 25 24 24 23 21 20 20 20 19 17 17 16 16 17 16 13 7 5 4 3 2 2 5 13 15 16 18 17 14 10 10 9 8 8 9 9 10 11 12 12 11 10 10 10 10 11 11 12 13 13 12 13 14 14 15 15 16 17 17 17 18 19 19 19 18 18 18 17 18 18 19
29 29 29 28 27 27 28 28 28 27 26 26 25 24 24 23 24 26 27 27 28 28 26 25 24 24 25 24 23 22 21 20 19 19 17 16 15 16 16 17 17 14 10 7 5 3 2 4 8 12 15 16 16 15 13 12 11 9 8 9 9 9 10 11 12 12 11 10 10 10 10 11 11 12 14 14 13 13 14 15 15 16 16 17 17 17 18 19 19 19 19 18 18 18 18 18 18
28 28 28 28 27 27 28 29 28 26 25 25 24 24 24 24 26 27 27 27 26 25 23 21 21 23 24 24 23 22 21 19 18 16 14 13 14 14 15 16 16 14 11 8 6 4 4 5 9 12 13 15 16 14 14 13 11 10 10 9 9 10 11 12 12 12 12 11 9 9 10 11 11 12 13 14 14 14 15 15 15 16 17 18 18 18 19 19 19 19 19 18 18 18 18 18 18
27 27 27 27 27 27 28 28 27 26 25 24 23 23 24 25 26 27 26 25 22 19 18 17 19 21 23 24 23 22 20 17 16 14 12 12 13 13 13 15 15 13 11 9 7 6 5 7 9 11 13 15 15 14 14 13 12 12 11 10 10 10 12 12 13 13 13 11 10 9 8 9 10 12 13 14 14 14 15 15 15 16 17 18 18 18 19 19 20 19 19 19 18 18 18 19 19
26 26 26 26 26 26 27 27 26 25 24 22 22 22 24 24 25 24 24 21 18 17 17 18 19 22 23 24 23 21 18 15 13 12 11 11 12 13 12 12 13 12 11 10 9 8 8 9 10 12 14 15 14 14 15 14 14 13 12 10 10 11 12 14 15 15 13 12 10 9 8 8 9 10 12 13 14 14 15 15 16 16 17 18 18 18 18 19 20 20 20 19 19 19 19 20 21
24 24 24 24 24 25 26 26 25 23 22 20 20 21 22 23 22 21 19 17 16 17 19 20 21 23 24 24 22 18 16 13 10 10 10 10 11 12 11 10 11 11 11 11 11 11 11 11 12 13 14 14 14 15 15 15 15 14 13 12 11 12 14 15 16 15 13 11 10 10 9 9 8 9 10 12 13 14 15 15 16 16 17 17 18 18 19 19 19 20 20 20 20 20 21 22 23
21 22 22 22 24 25 25 24 23 22 21 19 19 20 21 21 20 18 17 17 16 17 20 21 22 23 22 20 17 16 14 11 9 8 8 8 9 10 9 9 10 11 12 12 13 13 13 14 13 14 14 14 14 14 15 15 16 16 15 13 13 14 16 17 16 15 13 11 10 10 10 10 10 9 9 10 12 13 15 15 16 17 17 17 18 19 19 18 18 19 19 20 21 22 23 23 24
19 19 20 21 22 23 23 23 21 21 21 19 19 22 22 22 20 18 18 17 17 17 18 20 20 19 17 16 16 15 13 10 8 6 6 6 6 7 6 7 9 11 11 12 12 13 14 13 13 13 13 14 14 14 15 16 16 17 16 15 15 16 17 18 18 15 13 11 10 10 12 13 13 12 11 11 11 13 14 15 16 17 17 18 18 18 19 19 19 19 20 21 23 23 24 24 24
17 18 19 20 21 22 23 22 21 21 21 20 21 23 24 23 21 19 19 18 18 18 18 19 19 18 16 15 15 13 11 9 7 6 5 5 5 5 4 5 7 10 10 11 11 12 12 12 12 13 13 14 14 15 15 16 17 16 16 16 17 18 18 19 18 16 13 12 11 11 13 16 17 16 14 12 12 13 14 16 17 17 18 18 19 19 19 20 20 21 21 22 23 23 24 24 24
17 17 18 20 21 23 23 23 22 22 23 23 23 24 24 24 22 20 20 20 20 21 21 20 19 17 15 13 12 11 10 8 7 7 7 7 7 7 6 5 7 8 9 10 10 11 12 12 13 13 14 14 15 16 16 17 16 15 16 17 17 17 17 17 17 16 15 15 15 15 17 18 18 18 16 14 13 13 14 15 17 18 19 19 20 20 20 21 21 22 22 23 23 23 23 23 24
17 18 19 20 22 23 23 23 23 23 25 25 25 25 25 25 24 22 21 22 23 23 22 20 19 17 15 12 11 10 10 9 8 10 10 10 10 10 9 7 8 9 9 10 10 11 12 13 14 15 16 17 17 18 18 18 17 16 17 18 18 16 14 14 16 17 18 19 19 19 19 18 18 18 16 14 13 13 14 16 17 19 19 20 20 21 22 22 22 23 23 23 23 23 23 23 23
19 19 20 21 22 23 24 24 24 25 26 27 28 28 27 26 26 24 23 24 25 24 23 20 18 16 14 12 11 11 11 11 11 13 13 12 13 14 13 11 10 11 11 12 12 13 14 15 16 17 18 19 19 20 20 19 19 18 18 18 18 16 14 14 15 17 19 21 22 22 20 18 17 18 17 16 16 17 17 17 18 19 20 21 21 22 23 24 24 24 24 24 24 24 24 24 24
20 20 20 21 22 23 24 25 26 26 27 28 29 29 29 28 28 26 25 25 26 25 22 19 17 15 13 11 12 13 14 14 14 16 16 16 16 18 17 14 13 13 13 14 15 16 17 18 18 19 20 20 21 21 21 20 19 18 18 19 20 20 18 17 17 18 20 23 24 24 22 19 18 19 20 21 22 21 19 18 18 19 21 22 22 23 23 24 25 25 25 25 25 25 25 25 25
19 19 20 21 22 23 24 25 27 28 28 29 29 29 29 29 29 28 27 27 26 25 22 19 16 15 14 14 15 15 16 16 16 17 19 19 19 20 21 19 16 16 15 16 18 19 20 21 21 21 21 21 22 21 20 19 18 18 18 20 22 22 22 20 20 20 22 24 25 24 24 22 21 21 22 23 24 22 20 18 18 19 20 21 22 23 24 24 25 26 27 27 27 26 26 26 26
20 19 20 20 21 23 24 26 28 29 29 29 30 30 31 30 30 29 29 28 27 26 24 21 19 18 17 17 17 17 17 17 17 18 20 21 21 23 24 23 20 18 17 17 18 21 23 24 24 24 24 24 23 22 21 20 19 19 20 22 23 24 24 23 22 22 24 25 26 25 26 26 25 24 23 24 24 22 19 18 18 18 19 20 21 22 23 24 25 26 27 28 28 27 27 26 25
19 19 19 20 21 23 25 26 27 27 28 30 31 32 32 32 31 31 30 29 28 27 26 24 21 20 20 20 20 20 19 19 20 20 21 23 23 25 28 27 24 21 18 18 20 22 25 27 27 28 27 26 23 22 21 21 21 22 22 23 24 24 25 24 23 23 25 25 26 26 27 28 28 26 24 24 23 21 18 17 17 17 17 17 19 20 22 23 25 26 27 28 28 28 27 27 25
20 20 21 22 23 25 25 26 26 26 27 29 32 33 34 33 32 32 31 30 30 29 28 26 24 23 23 23 24 24 24 24 24 24 25 25 25 28 30 30 28 23 20 21 23 25 27 28 27 26 24 21 21 21 20 20 21 22 23 23 23 23 24 24 24 24 24 24 25 25 26 26 25 23 22 22 21 19 17 16 15 15 15 15 17 18 20 22 24 25 27 27 28 28 27 27 26
23 24 23 23 24 24 25 26 27 26 26 27 31 34 35 34 32 32 32 31 31 30 29 29 27 27 27 27 28 28 29 28 28 28 28 29 30 30 32 35 34 28 22 23 27 28 29 28 25 22 18 17 18 21 21 20 20 21 21 21 21 21 22 22 21 19 19 20 21 20 19 18 17 17 18 20 19 17 15 15 14 14 14 15 16 17 19 21 22 24 25 26 27 27 26 26 26
25 25 24 23 23 24 25 26 27 28 28 27 28 31 34 34 33 33 33 32 32 32 32 32 31 31 30 30 30 31 32 33 32 31 32 34 34 31 35 39 36 29 24 25 29 30 28 26 24 21 18 16 16 18 19 19 19 20 20 19 18 18 16 16 15 14 14 15 17 16 14 14 14 15 17 18 17 15 14 14 13 14 14 15 16 17 18 19 21 22 23 24 24 24 24 24 24
26 26 24 23 24 25 25 25 27 28 28 28 28 28 31 32 33 34 34 34 34 34 35 35 34 33 32 32 31 31 31 31 30 33 36 38 37 33 34 36 34 28 25 26 29 29 26 25 26 23 21 20 18 17 17 17 18 18 18 17 16 14 12 11 11 11 12 13 14 14 14 14 14 14 16 16 15 14 13 13 13 14 15 16 16 17 18 19 20 20 21 21 21 21 21 21 21
27 26 24 24 24 24 23 23 25 26 26 27 27 27 27 28 29 30 29 29 30 30 31 32 32 31 30 30 30 28 28 27 28 33 36 37 39 35 31 33 37 32 26 25 29 29 27 27 28 25 23 21 19 17 15 14 14 13 13 13 13 12 11 11 11 11 11 12 13 13 14 15 14 14 15 15 14 13 12 13 14 15 15 16 17 17 17 18 18 19 19 19 19 19 19 19 19
27 27 26 26 25 23 22 22 22 23 24 25 26 26 26 25 25 25 24 24 25 25 26 27 28 28 27 27 27 26 26 26 29 33 33 33 37 36 32 33 39 36 30 28 29 29 27 28 28 26 23 20 18 16 13 11 11 11 11 11 11 12 11 11 12 13 13 13 13 15 15 15 15 15 15 14 14 13 14 14 14 14 14 15 16 17 18 18 18 18 18 18 18 18 18 18 18
27 27 26 25 24 24 24 23 23 24 24 25 25 25 24 23 22 22 21 21 22 22 23 24 25 26 26 25 25 26 26 27 29 32 31 31 33 36 34 32 34 34 31 28 25 26 28 29 27 26 23 19 17 14 12 10 10 10 10 10 11 12 12 12 12 13 14 14 15 15 16 16 16 16 15 14 13 14 14 14 13 13 13 14 15 17 18 18 18 18 18 19 19 19 19 19 19
28 27 26 25 24 23 23 23 24 25 25 24 24 24 22 21 21 20 20 19 19 19 19 20 21 23 24 23 23 25 26 27 29 31 31 30 31 35 35 34 33 30 26 23 22 24 28 28 26 25 23 19 15 12 10 9 9 10 11 12 12 13 13 14 14 13 13 14 15 15 16 17 17 17 16 14 13 13 13 13 14 14 14 14 15 16 17 18 19 19 19 19 19 19 19 20 20
Wind_Direction
257 255 255 255 254 254 255 255 256 256 255 257 257 259 260 258 255 251 249 251 255 258 258 257 257 258 259 258 258 259 260 260 260 260 260 260 260 259 258 257 257 258 260 263 267 269 272 274 277 281 286 291 295 298 300 302 303 301 299 301 304 303 298 294 291 289 287 285 286 286 285 287 290 295 301 304 306 306 304 301 297 294 293 293 291 289 286 283 282 279 275 266 265 263 246 252 266
256 254 253 252 252 253 254 253 255 255 255 257 258 259 260 258 255 251 249 252 255 256 256 256 257 257 258 258 257 257 257 258 258 258 258 259 258 257 257 256 257 258 260 263 267 270 272 274 277 281 286 291 294 297 301 304 303 299 295 296 299 298 294 289 287 285 283 283 284 283 283 283 287 293 299 303 303 303 302 299 295 291 288 287 286 284 281 277 274 271 268 261 258 257 244 247 259
255 253 252 251 251 252 253 253 254 255 256 258 259 260 259 256 254 252 251 252 253 254 255 256 256 256 257 256 255 254 254 256 256 256 256 257 256 256 257 257 257 258 260 264 267 271 273 276 278 282 286 290 294 298 302 303 300 295 292 293 295 294 289 284 281 280 279 280 281 280 282 283 287 292 297 300 300 300 299 297 294 290 287 285 283 280 278 274 268 264 261 256 253 249 241 244 255
255 253 252 251 251 251 252 253 254 255 257 258 259 258 256 255 254 253 252 253 254 255 256 257 257 257 256 254 255 255 253 254 254 254 255 255 256 256 257 257 258 259 262 264 266 270 273 276 278 281 284 289 293 298 301 301 297 291 288 289 292 289 282 278 275 274 275 276 277 279 282 284 286 290 295 298 298 298 296 293 290 289 287 284 281 279 277 273 266 262 257 251 250 244 238 241 251
254 253 252 252 252 252 252 253 254 255 256 256 255 255 254 254 254 253 252 253 255 257 258 258 256 257 257 255 256 255 254 254 254 255 255 255 256 257 257 258 259 261 263 264 267 270 273 276 279 281 283 286 291 294 298 299 295 288 284 283 288 283 271 269 271 270 271 273 274 277 282 283 284 287 292 295 297 298 295 291 287 286 284 282 279 277 274 271 265 262 258 249 245 240 234 237 247
254 253 253 253 253 252 253 253 254 254 254 254 255 254 253 253 253 254 254 254 255 257 258 258 257 257 255 255 255 255 255 255 255 256 257 256 257 256 258 260 262 264 266 268 270 273 276 279 281 283 283 286 288 289 294 298 293 286 281 279 283 276 263 263 267 266 267 269 272 275 280 280 279 282 287 292 294 295 293 290 288 285 284 281 278 275 272 269 263 259 255 245 239 236 232 234 243
253 253 253 253 253 252 253 254 254 254 253 253 254 253 253 253 253 256 256 256 256 256 257 257 257 257 255 255 254 254 256 257 257 257 257 258 258 259 261 263 266 269 271 274 276 278 281 284 285 286 286 288 287 285 291 297 291 284 279 276 278 270 259 258 261 260 262 265 268 271 275 276 275 277 282 287 289 290 290 289 287 284 282 279 276 275 272 270 265 256 250 241 236 234 231 231 239
252 252 252 252 253 252 253 253 254 254 254 252 250 250 253 255 255 257 259 259 258 256 256 256 257 256 256 256 253 254 256 257 259 259 260 261 262 265 267 269 271 274 276 280 283 286 288 289 289 290 291 292 291 285 289 298 292 283 277 273 272 265 256 257 257 254 257 262 264 267 270 272 272 274 279 283 286 287 287 287 285 282 278 275 272 272 272 271 268 259 248 239 234 232 230 229 236
252 252 252 252 253 253 253 253 253 253 252 251 248 249 253 255 255 256 259 260 260 257 255 255 256 255 256 257 255 256 257 258 260 261 263 265 267 269 272 273 275 277 280 285 288 291 293 293 295 295 296 298 298 290 285 295 293 282 277 270 265 261 256 258 257 250 254 259 260 263 267 268 269 271 276 280 282 284 285 284 281 280 277 273 270 270 270 269 267 262 251 240 234 230 229 229 234
252 252 252 252 253 253 253 253 252 251 250 250 249 250 251 254 255 256 256 258 260 257 254 255 255 254 255 256 256 257 258 258 260 261 264 267 269 271 273 275 277 280 283 287 291 293 293 294 300 304 303 297 296 294 285 289 290 280 276 268 262 259 254 254 255 250 252 255 257 261 265 266 268 270 275 279 280 282 282 281 279 279 279 275 270 267 268 267 264 261 252 242 235 229 228 229 232
252 251 251 252 252 252 252 252 251 250 249 251 252 251 248 250 254 256 255 256 259 258 255 254 253 254 254 254 256 258 258 259 260 262 265 267 270 271 273 275 278 282 285 289 291 292 290 288 294 305 308 296 288 291 288 287 282 276 276 269 262 259 251 247 248 246 246 249 253 258 262 264 267 271 274 277 279 281 282 280 279 277 276 275 272 266 264 262 260 257 251 242 236 230 227 228 230
251 250 250 250 250 251 251 251 250 249 249 251 253 252 248 248 252 255 255 254 255 257 256 254 252 253 254 255 256 257 258 260 261 263 265 267 270 272 274 277 280 285 288 291 292 292 290 286 285 293 300 296 289 285 283 283 276 272 275 270 266 261 252 243 238 236 238 244 250 255 259 264 268 271 274 276 278 281 282 280 278 276 274 274 273 269 263 259 256 253 249 243 236 231 228 227 227
251 250 250 249 250 250 250 250 248 248 249 251 252 253 251 247 248 252 253 251 252 254 255 254 253 253 253 255 256 257 259 261 262 264 266 268 271 273 276 280 284 288 290 292 294 295 294 289 285 286 290 291 288 279 274 277 280 277 273 268 262 254 245 237 233 234 238 243 248 254 260 265 268 271 274 275 277 279 280 279 277 277 275 273 271 269 265 261 256 251 248 245 238 232 229 227 227
252 251 250 248 248 248 247 245 245 248 250 251 251 252 251 247 245 247 249 249 249 251 253 254 253 253 253 255 256 258 259 261 263 265 267 270 273 276 280 284 288 291 293 296 298 298 295 290 285 285 287 287 283 276 271 274 289 285 275 269 259 249 243 239 239 241 243 244 248 256 262 265 268 271 273 275 277 278 279 280 279 277 276 273 271 269 267 264 258 250 246 245 241 235 230 227 227
252 251 250 249 247 245 243 241 243 247 250 249 248 250 250 246 243 243 246 247 247 248 250 251 251 251 252 253 255 257 259 260 262 265 268 271 274 279 283 287 291 294 298 300 300 299 295 290 286 285 285 283 276 269 266 268 287 297 287 277 263 255 250 247 249 249 247 247 251 257 261 264 267 269 272 275 277 278 280 282 281 277 274 273 272 270 268 265 260 251 244 242 242 239 234 229 228
251 251 250 249 247 244 240 238 242 246 248 247 246 248 249 245 241 241 244 245 245 246 246 247 250 249 249 251 252 254 257 259 262 265 269 273 276 281 285 289 293 297 300 301 301 299 296 291 289 286 282 278 269 259 256 260 268 281 291 282 266 260 254 248 250 251 252 254 256 260 262 265 267 269 272 275 277 278 281 281 279 276 272 271 270 269 267 264 260 253 245 239 239 240 239 233 229
250 251 251 249 246 241 235 233 239 244 246 246 244 245 248 245 241 240 242 244 243 244 244 246 248 249 249 250 251 253 256 259 264 268 271 275 279 283 288 292 295 298 299 299 299 298 297 293 288 285 282 278 271 262 261 265 267 268 273 273 262 256 252 249 250 252 256 258 260 262 264 265 268 271 273 275 277 279 281 280 278 275 271 269 267 266 263 260 257 252 247 240 238 239 240 237 232
252 251 251 247 241 236 230 228 236 244 246 245 243 243 246 245 242 240 240 243 243 243 245 246 248 249 249 250 252 255 259 263 266 270 274 278 283 287 291 294 296 297 296 296 296 298 298 294 287 284 286 282 275 269 265 268 267 263 264 264 258 253 252 251 252 255 258 260 262 264 265 267 269 271 273 274 276 278 279 277 275 272 270 267 264 262 260 257 255 252 248 243 239 238 240 239 235
252 251 248 241 237 235 230 228 236 245 246 246 245 244 245 245 244 243 242 243 245 245 246 248 247 248 249 251 255 259 263 266 269 273 278 282 287 290 292 295 297 295 292 293 295 298 300 297 291 286 286 283 273 265 261 261 259 254 252 249 248 250 251 251 252 255 258 260 263 264 265 266 267 269 270 271 273 275 276 276 273 270 267 264 261 260 258 256 254 252 250 247 243 240 238 238 236
251 249 243 236 237 236 231 229 239 247 247 248 249 248 247 245 246 246 245 245 247 247 248 249 249 250 252 255 259 263 266 269 274 280 284 287 288 290 293 294 295 291 289 290 293 298 302 302 296 287 280 273 263 256 256 256 251 246 241 237 236 241 246 250 254 257 259 261 263 264 264 265 265 266 267 268 271 274 275 274 271 267 264 261 260 260 259 257 254 253 251 250 247 244 239 237 237
248 246 238 233 236 236 232 233 242 248 248 249 250 251 251 249 250 251 250 250 251 251 251 251 252 254 257 261 265 267 271 277 283 287 287 286 288 291 292 291 290 287 285 287 292 297 301 303 299 288 272 257 249 247 251 250 244 237 235 234 236 240 244 248 253 256 259 260 261 262 263 263 264 264 266 269 272 273 272 271 268 263 261 260 260 260 259 257 254 252 252 252 251 249 245 240 237
245 240 233 230 234 236 235 237 242 246 248 249 251 255 256 256 256 255 254 253 253 253 254 255 256 258 261 266 270 273 278 284 287 286 284 285 289 290 287 284 281 281 282 285 289 292 296 301 299 286 265 250 242 239 241 244 240 232 229 234 242 247 248 249 251 253 256 257 257 259 260 261 263 264 267 270 273 273 272 269 264 258 257 259 260 258 257 256 253 251 251 252 252 251 249 245 240
240 235 230 228 232 233 235 238 239 243 248 251 253 257 260 260 258 256 254 253 253 255 256 258 260 262 266 268 271 276 282 285 285 282 283 287 289 284 277 274 273 276 282 284 278 279 287 292 288 275 259 245 236 230 230 236 236 234 238 244 250 252 252 252 254 256 258 259 259 258 259 260 262 263 266 271 274 275 274 271 266 258 255 257 257 257 256 255 251 248 247 248 249 249 248 246 243
237 231 227 228 229 230 235 237 236 239 246 252 256 257 258 260 259 256 254 254 255 257 259 260 262 264 264 266 271 277 281 283 282 280 283 286 281 272 267 265 269 274 277 273 266 267 271 275 271 258 247 237 231 230 228 228 231 239 248 247 247 250 251 253 256 257 257 260 260 258 258 260 262 265 269 273 274 274 271 268 264 259 256 256 255 254 253 250 246 243 242 243 244 245 245 245 243
234 228 226 227 226 230 238 239 235 236 242 251 257 255 256 258 258 257 256 257 258 259 261 262 263 263 262 266 272 275 277 280 278 278 280 277 268 262 261 263 269 272 268 263 257 254 254 259 254 245 238 230 227 231 228 227 232 240 245 243 243 247 251 253 254 255 256 259 259 258 259 262 266 269 272 272 270 267 264 260 257 255 254 253 251 249 246 244 241 238 237 238 240 242 243 243 241
232 228 227 227 226 231 240 241 237 237 239 246 252 252 254 253 252 254 256 258 258 259 261 262 262 262 264 268 271 272 274 275 273 273 272 266 259 257 261 265 269 270 266 258 250 246 244 248 248 238 227 219 218 228 232 232 231 233 240 243 245 247 251 251 252 255 256 258 259 261 264 265 267 269 270 268 266 263 258 252 249 248 249 250 249 246 245 243 239 236 233 235 237 239 241 242 242
232 230 230 228 228 233 240 242 240 239 239 241 243 246 249 248 248 251 253 255 256 257 259 260 261 262 265 267 268 269 271 271 268 267 267 262 258 261 266 267 268 267 263 254 247 245 240 243 245 227 216 223 229 237 237 229 225 230 240 244 248 252 254 254 255 256 257 260 263 265 266 264 266 268 269 269 268 267 262 255 250 247 246 246 248 247 245 242 238 235 231 232 236 238 241 243 244
233 232 232 230 230 233 238 241 240 239 239 239 239 241 244 247 249 250 251 253 254 254 255 257 259 262 264 264 265 267 268 268 266 264 265 262 262 263 263 263 261 259 258 251 248 247 238 237 244 233 229 235 238 236 232 232 234 239 245 251 258 262 262 261 262 262 263 269 272 270 268 267 269 271 273 275 276 275 270 263 257 253 250 246 247 249 245 242 239 237 233 233 235 238 240 242 242
234 232 233 232 231 233 235 238 240 239 239 239 239 240 242 245 248 248 247 249 251 252 252 252 254 256 256 257 261 265 267 265 263 264 263 263 270 267 262 264 261 261 262 254 255 251 234 233 244 242 239 236 234 232 231 241 250 250 252 261 268 268 268 268 268 267 270 281 285 279 277 277 275 274 279 284 285 282 276 268 260 256 254 251 249 249 246 244 242 241 237 235 236 236 236 236 235
234 231 232 233 233 233 234 236 239 241 241 240 239 240 239 239 241 242 242 244 247 250 248 244 244 245 248 253 258 262 264 263 263 265 262 264 275 277 273 273 270 274 274 257 250 246 236 240 246 245 242 234 231 235 234 242 254 259 258 262 264 265 269 274 274 271 279 293 292 285 288 292 288 282 283 286 288 284 278 271 263 257 255 254 254 253 251 249 247 245 243 240 240 238 236 233 229
233 231 231 233 235 234 234 235 238 241 242 241 239 239 236 235 236 236 239 241 242 243 239 235 236 240 246 251 256 259 261 262 263 265 262 262 271 278 274 267 266 275 278 260 243 243 247 252 253 247 242 243 243 243 242 246 252 257 257 258 260 262 271 283 282 277 286 294 287 287 295 300 295 289 285 286 288 284 278 271 262 257 258 259 261 260 257 254 250 248 248 246 245 243 241 238 235
231 231 232 232 234 235 234 236 238 240 242 241 241 241 238 237 236 237 240 241 241 238 233 233 236 241 247 252 254 256 257 259 262 263 259 262 270 272 264 256 257 261 275 294 270 262 263 263 261 246 237 250 250 241 244 249 251 257 262 263 264 266 274 284 283 279 287 291 286 290 296 296 293 291 289 286 285 283 278 268 257 252 257 261 263 262 257 254 250 248 250 249 248 247 246 245 243
228 230 231 231 233 234 234 236 237 239 241 242 243 244 243 241 240 241 244 245 245 242 236 236 240 245 248 250 251 252 253 255 258 260 258 261 267 266 258 251 249 249 264 296 294 297 289 278 269 250 239 246 243 243 255 258 260 263 261 260 263 269 277 284 283 281 287 291 290 293 296 295 293 291 288 284 280 278 275 267 255 248 252 257 258 258 256 252 249 248 248 248 249 249 249 248 247
226 227 229 229 231 233 234 235 236 237 240 242 243 244 244 243 244 246 247 247 247 245 240 239 242 245 247 246 247 247 249 251 255 258 259 261 264 262 256 252 250 250 256 246 230 287 294 292 269 253 243 243 246 259 266 261 260 258 255 257 262 270 280 289 292 291 294 295 296 297 298 297 293 288 283 279 278 276 272 266 258 250 250 254 255 255 255 253 251 249 247 247 250 253 253 252 252
225 226 228 229 229 231 233 235 235 236 238 241 242 243 244 245 246 247 248 248 248 246 241 238 240 243 244 243 242 243 244 247 252 258 262 263 263 261 257 254 252 251 241 222 227 263 256 159 229 244 241 242 249 259 260 255 255 253 255 261 265 274 282 289 294 297 299 299 297 295 295 293 288 282 278 276 276 275 273 269 264 256 252 254 256 256 254 252 251 250 248 248 253 257 257 256 255
225 226 228 230 229 230 233 236 237 238 239 241 243 245 247 247 247 247 247 247 248 247 244 241 240 241 242 239 237 238 239 243 249 256 261 262 261 261 258 253 249 247 238 225 220 238 243 179 199 225 235 243 250 254 254 256 255 254 257 260 265 274 280 284 287 291 293 294 294 291 289 287 283 279 276 276 274 272 272 271 268 262 257 255 256 255 253 252 251 251 249 248 252 257 258 257 257
229 229 230 231 231 231 234 237 239 240 241 242 244 246 247 246 245 245 245 245 245 246 246 242 238 239 238 233 231 233 235 240 247 253 256 257 257 258 256 249 243 240 236 229 218 224 240 205 199 214 229 241 247 250 255 258 258 257 257 258 265 271 275 278 279 281 283 284 286 285 284 283 281 279 276 274 271 269 268 268 267 265 261 258 256 254 253 254 253 250 247 246 249 255 257 256 256
233 233 232 233 232 233 236 239 241 242 242 244 244 244 244 243 243 243 242 241 238 237 234 229 228 229 228 227 226 229 233 236 242 247 249 249 250 249 249 246 239 234 230 226 224 224 228 216 209 217 230 241 247 253 258 261 261 259 257 258 262 268 273 275 276 277 277 279 280 278 276 276 277 277 275 273 270 267 266 266 265 264 263 262 260 256 254 255 253 248 245 245 250 255 257 255 255
235 235 235 235 234 236 238 241 242 243 243 243 242 241 241 240 238 238 238 235 229 223 216 211 214 219 222 225 226 227 231 232 234 238 239 238 240 241 242 243 239 233 225 223 227 224 221 220 220 226 236 245 252 258 262 265 265 261 259 258 260 266 273 277 279 278 277 278 279 277 271 268 271 274 275 274 272 270 268 267 267 265 265 264 262 258 254 252 249 246 245 247 251 256 258 258 260
236 236 236 235 235 236 239 241 242 242 240 238 235 234 234 233 232 231 231 229 223 219 214 210 211 217 221 226 228 228 229 224 216 219 226 232 239 240 239 240 239 233 225 223 229 228 224 223 226 232 240 246 252 257 262 266 268 265 262 260 263 270 276 278 279 278 278 276 277 278 275 272 272 276 280 280 277 274 271 270 269 267 265 264 262 259 256 252 249 247 247 249 252 256 259 260 263
238 238 237 234 233 234 237 239 239 239 237 231 224 223 225 227 227 226 226 226 223 220 220 219 218 221 224 229 231 229 225 210 191 202 219 229 243 248 246 241 235 233 230 228 229 231 229 227 229 235 241 246 251 256 261 265 268 268 267 266 267 272 276 277 275 274 275 275 279 284 286 286 282 281 284 285 284 279 275 271 269 267 265 263 262 262 261 258 254 251 249 249 251 254 258 261 263
237 237 234 230 229 231 233 235 235 234 231 226 219 217 221 225 223 221 223 224 222 222 222 221 220 221 224 228 228 222 218 205 188 201 221 233 252 260 256 244 233 231 232 232 232 232 233 232 233 238 242 248 253 256 260 264 267 268 269 270 271 273 276 274 269 268 270 274 284 294 299 300 295 290 286 286 287 285 280 275 271 268 266 264 263 263 264 263 261 257 254 251 251 253 257 261 264
232 230 228 227 227 228 229 231 230 227 224 222 219 215 218 225 223 219 220 219 216 217 216 214 215 219 222 225 226 220 218 215 205 214 228 234 252 265 262 245 233 230 233 237 240 239 239 237 236 240 244 248 253 256 259 262 263 265 268 270 272 276 278 273 265 262 267 271 277 290 301 302 298 293 287 285 286 285 283 280 276 272 268 265 263 262 262 262 262 260 258 256 256 256 259 263 265
229 226 226 226 226 226 226 227 227 224 220 218 218 216 218 224 225 220 220 218 214 213 213 213 218 224 224 225 229 230 230 231 231 238 242 240 246 259 262 245 235 236 239 243 248 249 246 241 237 238 240 243 248 252 256 257 259 261 264 267 270 274 277 271 260 260 268 272 273 283 296 299 295 289 283 281 282 282 283 281 278 274 270 267 264 262 260 259 259 259 260 260 260 261 261 263 265
228 227 227 227 227 226 226 225 224 223 221 219 219 220 220 224 227 225 222 220 216 214 216 221 226 226 224 226 236 245 249 250 254 257 256 253 253 258 261 251 239 238 243 249 252 253 249 244 238 234 235 237 242 247 252 255 257 260 262 263 265 266 270 267 260 260 268 272 275 280 288 292 290 285 280 278 280 284 284 282 279 275 272 269 265 263 261 259 258 258 259 260 261 262 263 263 264
228 229 229 228 227 227 227 225 223 223 224 223 223 225 224 227 231 230 225 221 219 219 223 229 230 225 223 230 242 256 265 268 269 268 266 264 263 264 263 258 246 240 242 247 250 250 249 246 241 237 234 236 240 246 251 254 257 259 261 261 261 262 265 267 265 264 267 270 273 276 279 281 281 279 277 277 281 284 283 279 277 275 272 269 265 263 260 259 258 257 257 258 260 262 263 264 264
231 232 232 232 231 230 228 226 225 224 225 227 228 229 229 230 234 233 228 224 224 226 231 235 234 231 232 239 247 259 269 272 271 270 270 270 271 272 268 262 254 248 245 245 247 249 248 247 242 238 236 237 241 246 249 252 254 257 258 258 259 262 264 265 265 264 264 265 268 271 272 273 274 276 278 281 283 283 278 273 271 272 271 269 266 264 261 260 259 259 258 258 259 260 261 262 263
235 236 235 235 234 234 231 229 228 227 227 228 230 233 233 232 233 234 231 230 231 233 236 238 239 238 240 247 256 265 272 275 273 271 271 272 273 274 271 264 260 259 255 248 244 244 245 244 241 237 236 237 239 242 246 250 253 255 257 258 260 263 264 264 264 263 262 263 265 269 271 270 272 276 279 281 282 280 276 273 271 270 269 268 267 266 265 263 261 260 259 258 258 258 258 259 260
236 237 237 237 237 238 236 233 233 232 230 229 230 232 234 234 235 235 235 235 236 237 239 242 242 241 244 250 257 266 272 275 275 270 268 268 269 268 267 265 262 261 260 255 246 241 241 241 240 240 239 238 238 241 245 251 256 259 261 263 265 267 267 266 267 267 265 264 265 268 271 271 272 277 279 278 276 274 272 271 269 269 269 269 269 269 268 267 264 262 260 258 257 257 257 257 258
243 242 241 240 241 242 242 240 239 239 236 232 231 231 232 234 237 237 238 239 240 240 242 244 244 246 249 252 256 262 267 272 271 267 264 262 260 261 262 262 261 259 259 258 249 240 237 237 239 240 239 236 237 242 249 254 258 261 263 265 269 271 273 272 271 270 268 267 268 268 270 272 272 273 273 272 271 269 267 267 266 267 268 270 272 272 271 270 268 265 262 259 258 256 256 256 256
245 244 242 241 241 243 246 246 245 244 241 237 234 233 233 234 236 239 240 240 242 242 243 245 247 249 250 253 258 263 269 273 272 271 269 264 261 259 258 258 258 257 257 255 246 237 236 238 239 239 235 233 239 244 248 253 256 260 264 267 270 273 276 275 272 270 269 269 270 270 273 273 268 263 263 263 263 263 265 267 267 267 268 270 272 273 273 271 269 266 263 260 258 256 255 255 255
243 244 244 244 245 245 247 248 247 246 243 239 236 235 237 236 236 239 241 243 244 246 247 248 251 253 252 253 257 262 267 271 272 271 268 268 267 264 263 261 254 245 244 249 246 241 239 238 236 237 233 231 238 242 246 252 257 262 265 268 272 276 278 277 274 271 268 267 269 272 277 272 259 252 254 256 257 261 266 269 270 269 269 269 271 272 272 271 270 267 265 262 261 259 258 257 256
243 246 247 247 247 247 246 245 246 245 243 241 238 237 238 238 237 239 241 243 246 248 251 253 256 258 258 257 257 260 264 267 269 266 262 262 261 264 268 259 243 232 235 245 244 239 237 237 236 239 239 239 244 248 252 256 259 262 264 269 275 278 280 282 278 273 270 267 267 270 271 262 251 249 250 251 255 262 267 270 272 273 274 274 273 273 272 271 269 267 266 265 264 263 262 261 261
239 243 245 245 246 245 243 242 243 244 242 242 240 238 237 238 239 240 242 243 246 248 251 254 257 258 258 258 258 259 261 262 262 261 260 256 248 251 260 246 226 224 237 241 239 237 241 247 246 245 247 250 253 255 256 257 258 263 267 270 274 276 277 277 273 268 265 264 264 264 263 259 253 250 250 250 255 262 268 270 271 274 277 277 276 274 272 270 268 266 264 263 262 262 262 262 262
237 239 240 241 242 244 243 242 243 245 245 243 242 241 240 240 241 243 244 245 247 248 251 254 256 257 257 258 258 258 256 252 250 253 258 253 240 241 249 234 221 225 237 243 244 246 251 254 253 253 253 253 253 252 255 257 257 259 261 261 265 269 269 265 261 259 258 259 261 261 263 263 257 251 251 252 254 261 270 272 272 273 276 277 276 274 271 270 268 266 264 262 262 261 260 260 260
239 239 237 238 240 242 243 243 244 247 247 246 245 244 244 244 246 248 249 250 251 252 253 255 258 259 259 258 258 257 253 248 247 250 253 249 242 242 247 239 228 231 244 253 252 250 250 249 251 255 255 253 253 253 254 255 255 255 255 252 254 260 261 259 258 258 258 259 261 260 259 259 255 251 251 256 261 267 270 270 269 269 270 273 274 272 270 269 268 267 265 264 262 261 259 259 259
239 240 239 240 240 241 244 244 244 246 247 247 248 248 249 250 252 254 255 256 257 257 257 257 258 258 257 255 252 250 249 246 248 252 252 249 246 246 250 247 236 237 248 253 249 243 241 243 248 252 251 249 248 248 249 249 252 257 260 258 257 260 264 264 261 259 258 258 259 257 254 253 254 256 256 257 262 264 260 259 261 264 265 266 268 270 271 269 269 268 266 265 264 262 261 260 259
236 240 240 240 241 242 245 247 246 245 246 248 250 252 253 254 255 256 257 257 257 256 257 255 254 253 251 249 245 243 242 240 242 248 251 250 248 248 251 249 244 248 253 247 239 235 234 239 246 249 250 248 241 239 243 248 252 255 256 256 257 259 265 268 265 261 260 258 257 255 251 250 255 261 262 259 255 254 254 255 260 264 265 263 261 262 266 268 269 267 265 263 263 264 264 264 263